Flag for Gambia Weather past 2 weeks in Banjul, Gambia

Now
73 °F

Mild.


Feels Like: 72 °F
Forecast: 69 / 81 °F
Wind: 8 mph from West

Location: Banjul / Yundum


UV Index: 10 (Very high)

Visibility: N/A


Pressure: 29.80 "Hg

Humidity: 89%

Dew point: 70 °F

Location of BanjulLocation

Historic Weather in Banjul

°F

Banjul temperature yesterday

Maximum temperature yesterday: 95 °F (at 3:00 PM)
Minimum temperature yesterday: 68 °F (at 7:00 AM)
Average temperature yesterday: 78 °F

Past Weeks' High & Low Weather Summary

 TemperatureHumidityPressure
High104 °F (Apr 5, 2:00 PM)100% (Apr 12, 5:00 AM)29.92 "Hg (Apr 12, 5:00 AM)
Low63 °F (Apr 7, 5:00 AM)13% (Apr 5, 3:00 PM)29.71 "Hg (Apr 16, 4:00 PM)
Average76 °F65%29.83 "Hg
* Reported Apr 3 11:00 PM — Apr 18 11:00 PM, Banjul, Weather by CustomWeather, © 2014

Note: Actual official high and low records may vary slightly from our data, if they occured in-between our weather recording intervals... More about our weather records

Advertising

Historic Weather Conditions — Data for Previous 24 hours

 ConditionsComfort  
Time TempWeatherWind HumidityBarometerVisibility
11:00 PM
Apr 18
73 °FMild.6 mph89%29.80 "HgN/A
10:00 PM73 °FClear.6 mph89%29.74 "Hg10 mi
9:00 PMN/AClear.10 mphN/A29.74 "Hg10 mi
8:00 PM75 °FClear.12 mph78%29.71 "Hg10 mi
7:00 PM81 °FSunny.8 mph62%29.74 "Hg10 mi
6:00 PM84 °FSunny.12 mph51%29.74 "Hg10 mi
5:00 PM88 °FSunny.9 mph49%29.74 "Hg10 mi
4:00 PM91 °FSunny.12 mph44%29.74 "Hg10 mi
3:00 PM95 °FSunny.10 mph39%29.77 "Hg10 mi
2:00 PM93 °FSunny.7 mph44%29.77 "Hg10 mi
1:00 PM93 °FSunny.7 mph44%29.77 "Hg10 mi
12:00 PM90 °FSunny.7 mph46%29.77 "Hg10 mi
11:00 AM86 °FSunny.6 mph52%29.80 "Hg10 mi
9:00 AM75 °FSunny.No wind74%29.77 "Hg10 mi
8:00 AM70 °FClear.3 mph94%29.77 "Hg6 mi
7:00 AM68 °FClear.2 mph94%29.77 "Hg6 mi
6:00 AM70 °FClear.3 mph88%29.74 "Hg6 mi
5:00 AM70 °FClear.N/A94%29.77 "Hg6 mi
4:00 AM70 °FClear.3 mph94%29.77 "Hg6 mi
3:00 AM70 °FClear.5 mph100%29.77 "Hg6 mi
2:00 AM70 °FClear.5 mph94%29.80 "Hg6 mi
1:00 AM70 °FClear.6 mph94%29.83 "Hg10 mi
12:00 AM72 °FClear.6 mph88%29.80 "Hg10 mi
Weather by CustomWeather, © 2014

See weather overview